"Pseudo-MPEC" for C077675

Created 2021 Jun 17 4:07:09 UT using Find_Orb

Click here for an explanation of pseudo-MPECs

 
 Astrometry: 
     C077675  C2021 06 09k@hn]NR-!8Yjf1T(q/5Q*b:lX[iS/sAstrometry9!m[IQ08e:qVV00
     C077675  C2021 06 09Z\0bTtQ+X9Jredacted;L[m%kArF4Soe=K#)?O_y1I;?wl%V,%ZXV00
     C077675  C2021 06 09.45107 23 10 42.82 -02 58 39.4    ~6BJ7 21.6 GVNEOCPG96
     C077675  C2021 06 09:(7+I/+7U#ZZc/yAK;`IaeYmD9%_ADj%P(B+_e??e)A?JF4dou*NV00
     C077675  C2021 06 09.45534 23 10 43.29 -02 58 34.8    ~6BJ7 22.3 GVNEOCPG96
     C077675  C2021 06 09iNBH3c?X.Dbjfm)hXHaxQ(=UOQ@xLJ'oRI@2]Rt':dH-Gj?pR=!ZV00
     C077675  C2021 06 09.45962 23 10 43.76 -02 58 31.0    ~6BJ7 22.2 GVNEOCPG96
     C077675 mC2021 06 0941ce+bl/iaalY'$pYSRMq4?jTiBKDW`U@%`(qoK3W=l8vcLO;yo4V00
     C077675 mC2021 06 09?9B.click\mS9-b33Ip^AqO9dh5'nvmk[here8*#@KS32Gy?=^]8V00
     C077675 mC2021 06 09UgQs/@T#^PJWufor`oZ=oh#h!siT8`8OxH*u%JP(c-@Vm560^jSaV00
     C077675 mC2021 06 09X.4!bLaUV`#LDxRn(4W/AQeh@US%E`@XHUY0[A?7[v%upMW*_fj+V00
     C077675 |C2021 06 11H1`Uj`;0c?wNUrGlSDd2sZ:P?y=yi!T=WD#LexplanationUAjNr807
     C077675 |C2021 06 11)7?PDc:1\OK3n$*Gm`HH#YF`UGP*@31A=U_Xfu-7bU;lc-Je0^17807
     C077675 |C2021 06 11Dg8tKXv8iqVy04e,AWnPL;RiHV.X:tI^;b2ftb$dZZ=jn\Pi9E?@807
     C077675 KC2021 06 12.41665 23 16 55.75 -02 09 46.0    ~6CLq 21.8 RoNEOCP291
     C077675 KC2021 06 12.42588 23 16 56.89 -02 09 36.7    ~6CLq 21.9 RoNEOCP291
     C077675 KC2021 06 12.43512 23 16 58.02 -02 09 27.6    ~6CLq 21.9 RoNEOCP291

Station data:
(291) LPL/Spacewatch II  (N31.961669 W111.599905)  US/Arizona.  Observers J.
   V. Scotti, R. S. McMillan. 1.8-m f/2.7 reflector + CCD.
(807) Cerro Tololo Observatory, La Serena  (S30.169136 W70.805900)  Chile.
(G96) Mt. Lemmon Survey  (N32.442754 W110.788720)  US/Arizona.  Observers T.
   A. Pruyne, B. M. Africano, E. J. Christensen, G. A. Farneth, D. C. Fuls,
   A. R. Gibbs, A. D. Grauer, H. Gröller, J. A. Johnson, R. A. Kowalski, S.
   M. Larson, G. J. Leonard, D. Rankin, R. L. Seaman, F. C. Shelly. 1.5-m
   reflector + 10K CCD.
(V00) Kitt Peak-Bok  (N31.963127 W111.600190)  US/Arizona.

Orbital elements:  C077675
   Perihelion 2021 Aug 28.923940 +/- 12.4719 TT = 22:10:28 (JD 2459455.423940)
Epoch 2021 Jun 12.0 TT = JDT 2459377.5   Earth MOID: 0.5929   Ju: 0.3397
M 350.36172292 +/- 7.6730403        (J2000 ecliptic)          AutoNEOCP
n   0.12368826 +/- 0.12306          Peri.   72.79759 +/- 8.1965041
a   3.98948694 +/- 2.58886          Node   286.34312 +/- 2.3635875
e   0.6010976 +/- 0.256048          Incl.    3.85111 +/- 0.1527513
P   7.97                   H 18.6   G  0.15   U 11.3  
q 1.59141564 +/- 0.113051    Q 6.38755824 +/- 20.7816
From 17 observations 2021 June 9-12; mean residual 0".27
Residuals in arcseconds: 
210609 V00  .09+  .13-    210609 G96  .99-  .17-    210611 807  .10-  .04-    
210609 V00  .11-  .22+    210609 V00  .28-  .22+    210611 807  .09-  .17+    
210609 G96  .82+  .17-    210609 V00  .06+  .12-    210612 291  .15+  .04-    
210609 V00  .05+  .00     210609 V00  .10+  .35-    210612 291  .04+  .08+    
210609 G96  .07-  .23+    210609 V00  .14+  .22+    210612 291  .21-  .00     
210609 V00  .33+  .16+    210611 807  .22+  .20-    

Ephemerides (geocentric):
Date (UTC) HH   RA              Dec         delta   r     elong  mag " sig PA
---- -- -- --  -------------   -----------  ------ ------ -----  --- ---- ---
2021 06 17 04  23 26 52.122   -00 50 14.33  1.3738 1.7626  93.8 21.9 9.29  48
2021 06 17 05  23 26 57.352   -00 49 32.15  1.3733 1.7624  93.9 21.9 9.44  48
2021 06 17 06  23 27 02.581   -00 48 49.96  1.3728 1.7622  93.9 21.9 9.58  48
2021 06 17 07  23 27 07.810   -00 48 07.77  1.3723 1.7620  93.9 21.9 9.73  48
2021 06 17 08  23 27 13.039   -00 47 25.58  1.3719 1.7618  93.9 21.9 9.87  48
2021 06 17 09  23 27 18.269   -00 46 43.37  1.3714 1.7617  93.9 21.9 10.0  48
2021 06 17 10  23 27 23.498   -00 46 01.17  1.3709 1.7615  93.9 21.9 10.2  48
2021 06 17 11  23 27 28.727   -00 45 18.95  1.3704 1.7613  94.0 21.9 10.3  48
2021 06 17 12  23 27 33.956   -00 44 36.73  1.3699 1.7611  94.0 21.9 10.5  48
2021 06 17 13  23 27 39.184   -00 43 54.51  1.3695 1.7609  94.0 21.9 10.6  48
2021 06 17 14  23 27 44.413   -00 43 12.28  1.3690 1.7608  94.0 21.9 10.8  48
2021 06 17 15  23 27 49.642   -00 42 30.04  1.3685 1.7606  94.0 21.9 10.9  48
2021 06 17 16  23 27 54.870   -00 41 47.80  1.3680 1.7604  94.0 21.9 11.1  48
2021 06 17 17  23 28 00.099   -00 41 05.55  1.3676 1.7602  94.0 21.9 11.3  48
2021 06 17 18  23 28 05.327   -00 40 23.29  1.3671 1.7600  94.1 21.9 11.4  48
2021 06 17 19  23 28 10.555   -00 39 41.03  1.3666 1.7599  94.1 21.9 11.6  48
2021 06 17 20  23 28 15.784   -00 38 58.77  1.3661 1.7597  94.1 21.9 11.7  48
2021 06 17 21  23 28 21.012   -00 38 16.50  1.3657 1.7595  94.1 21.9 11.9  48
2021 06 17 22  23 28 26.240   -00 37 34.22  1.3652 1.7593  94.1 21.9 12.1  48
2021 06 17 23  23 28 31.468   -00 36 51.94  1.3647 1.7591  94.1 21.9 12.2  48
2021 06 18 00  23 28 36.696   -00 36 09.65  1.3642 1.7590  94.1 21.9 12.4  48
2021 06 18 01  23 28 41.924   -00 35 27.36  1.3638 1.7588  94.2 21.9 12.6  48
2021 06 18 02  23 28 47.151   -00 34 45.06  1.3633 1.7586  94.2 21.9 12.8  48
2021 06 18 03  23 28 52.379   -00 34 02.75  1.3628 1.7584  94.2 21.9 12.9  48
2021 06 18 04  23 28 57.606   -00 33 20.44  1.3623 1.7582  94.2 21.9 13.1  48
2021 06 18 05  23 29 02.834   -00 32 38.12  1.3619 1.7581  94.2 21.9 13.3  48
2021 06 18 06  23 29 08.061   -00 31 55.80  1.3614 1.7579  94.2 21.9 13.5  48
2021 06 18 07  23 29 13.289   -00 31 13.48  1.3609 1.7577  94.3 21.9 13.6  48
2021 06 18 08  23 29 18.516   -00 30 31.14  1.3604 1.7575  94.3 21.9 13.8  48
2021 06 18 09  23 29 23.743   -00 29 48.80  1.3600 1.7573  94.3 21.9 14.0  48
2021 06 18 10  23 29 28.970   -00 29 06.46  1.3595 1.7572  94.3 21.9 14.2  48
2021 06 18 11  23 29 34.197   -00 28 24.11  1.3590 1.7570  94.3 21.9 14.4  48
2021 06 18 12  23 29 39.424   -00 27 41.75  1.3585 1.7568  94.3 21.9 14.6  48
2021 06 18 13  23 29 44.651   -00 26 59.39  1.3581 1.7566  94.3 21.9 14.8  48
2021 06 18 14  23 29 49.877   -00 26 17.03  1.3576 1.7564  94.4 21.9 14.9  48
2021 06 18 15  23 29 55.104   -00 25 34.65  1.3571 1.7563  94.4 21.9 15.1  48
2021 06 18 16  23 30 00.330   -00 24 52.28  1.3566 1.7561  94.4 21.9 15.3  48
2021 06 18 17  23 30 05.557   -00 24 09.89  1.3562 1.7559  94.4 21.9 15.5  48
2021 06 18 18  23 30 10.783   -00 23 27.50  1.3557 1.7557  94.4 21.9 15.7  48
2021 06 18 19  23 30 16.010   -00 22 45.11  1.3552 1.7556  94.4 21.9 15.9  49
2021 06 18 20  23 30 21.236   -00 22 02.71  1.3548 1.7554  94.4 21.9 16.1  49
2021 06 18 21  23 30 26.462   -00 21 20.30  1.3543 1.7552  94.5 21.9 16.3  49
2021 06 18 22  23 30 31.688   -00 20 37.89  1.3538 1.7550  94.5 21.9 16.5  49
2021 06 18 23  23 30 36.914   -00 19 55.48  1.3533 1.7548  94.5 21.9 16.7  49
2021 06 19 00  23 30 42.140   -00 19 13.06  1.3529 1.7547  94.5 21.9 16.9  49
2021 06 19 01  23 30 47.365   -00 18 30.63  1.3524 1.7545  94.5 21.9 17.1  49
2021 06 19 02  23 30 52.591   -00 17 48.20  1.3519 1.7543  94.5 21.9 17.3  49
2021 06 19 03  23 30 57.817   -00 17 05.76  1.3515 1.7541  94.6 21.9 17.5  49